Location: site
(53.0000°N, 23.0500°E)
Time: 01:07:16
(UTC+01:00)

SAOCOM 1-A - Pass Details

Date: 26 January 2020
Orbit: 621 x 623 km, 97.9° (Epoch: 26 February)

Event Time Altitude Azimuth Distance (km) Brightness Sun altitude
Rises 05:00:09 0° 176° (S) 2,894 ? -20.9°
Reaches altitude 10° 05:02:22 10° 180° (S) 1,992 ? -20.6°
Maximum altitude 05:06:38 56° 259° (W) 749 ? -19.9°
Enters shadow 05:07:49 41° 311° (NW) 909 ? -19.8°
